COSMOS 886 DEB

Satellite information

Favourite Embed

Satellite Type and Status

DEBRISIN ORBIT

Key statistics

Satellite COSMOS 886 DEB at a glance.

Uptime

17725

Days in orbit

Revolutions

≈ 13.6

Per day

Orbit

LEO

Low Earth Orbit

Inclination

65.8

Latest

Satellite identification and parameters

Extended collection of information and parameters for COSMOS 886 DEB.

Object identification

Identified? True

Debris? True

Object name: COSMOS 886 DEB

International designator: 1976-126BG

Object number (NORAD): 9966

Object ID (CCSDS): 9966

Country: COMMONWEALTH OF INDEPENDENT STATES (CIS)

Current information (Y/N): Y

RCS size: SMALL

Orbital parameters

Period: 105.768 minutes

Inclination: 65.7779 deg

SMA: 7408.502 km

Apoapsis: 1493.241 km

Periapsis: 567.494 km

RAAN: 33.407 deg

Eccentricy: 0.0624787

Argument of periapsis: 158.9284 deg

Mean anomaly: 203.8789 deg

Mean motion: 13.61467048 rev/day

Mean motion (dot): 0.00003935 rev/day2

B* drag term: 0.0013872 1/REarth

Two-line elements (TLE)

Creation date: July 6, 2025, 6:05 p.m.

Reference frame: TEME

Reference center: EARTH

Epoch: July 6, 2025, 3:20 p.m. UTC

TLE line 0: 0 COSMOS 886 DEB

TLE line 1: 1 09966U 76126BG 25187.63953798 .00003935 00000-0 13872-2 0 9998

TLE line 2: 2 09966 65.7779 33.4070 0624787 158.9284 203.8789 13.61467048324186

Live tracking on map

Real-time ground track for satellite COSMOS 886 DEB.

In-orbit conjunctions

A list of the most updated potential collisions computed for object COSMOS 886 DEB.

Target Orbit TCA Probability of collision Miss distance Type
COSMOS 1680 LEO 2025-02-02 13:10:58 0.00014323 315.0 (m) PAYLOAD
CZ-6A DEB LEO 2025-01-01 09:00:12 0.0001907548 213.0 (m) DEBRIS

Associated space launch

Second generation ASAT satellite

COSMOS 886 DEB was lifted into orbit during the mission ‘Tsiklon-2 | IS-A 4’, on board a Tsiklon-2 space rocket.

The launch took place on Dec. 27, 1976, 12:05 p.m. from 90.

For more information about the launch, click the button.

Launch to space Tsiklon-2 | IS-A 4
Tsiklon-2 | IS-A 4

Agency: N/A

Status: Launch Successful

Launch date: Dec. 27, 1976, 12:05 p.m. UTC

Rocket: Tsiklon-2

Launch pad: 90

Location: Baikonur Cosmodrome, Republic of Kazakhstan

...

Latest news about this satellite

There are no fresh news available about this satellite. Check back as we update our databases every day.


Newsletter sign-up

Weekly statistics, charts and insights to help you stay on top of the space industry.